STARLINK-4720, 53800

Orbit data source: Space-Track

STARLINK-4720, 53800 is a payload satellite owned by SpaceX/Seattle (US) in LEO that was launched on Sun, 11 Sep 2022 UTC via an FALCON 9 launch vehicle from the Air Force Eastern Test Range (AFETR). Payload-class satellites include a variety of spacecraft equipped with specific instruments for various scientific and technological missions. These include communications satellites like Starlink; space stations such as the ISS; scientific satellites like the Hubble; Earth observation satellites from companies like Planet Labs, Umbra, and HawkEye 360; GPS; miniature CubeSats for education and research; and military/defense satellites.

Loading next visibility...
Identifier
53800, 2022-111AD
Orbit
LEO
Country
Flag of USUS
Related business
Manufacturer
SpaceX/Seattle
Mission
Partially operational Commercial Communications
Bus & Motor
STARLINK, Unknown motor
Mass
305 kg wet, ~290 kg dry
Launch date (UTC)
2022-09-11 (4 years ago)
Launch vehicle
FALCON 9
Launch site
Air Force Eastern Test Range (AFETR)
Object type
Payload
Rocket body
Debris
Shape & HBR
Box + 1 Pan, 10.1 m
Radar Cross Section
13.562 m², Large (>1 m²)

Expand to show TLE details & history
Last TLE update: 21 hours ago

TLE from 21 hours ago
0 STARLINK-4720
1 53800U 22111AD  26124.77078455  .00046248  00000-0  63735-3 0  9992
2 53800  53.2101 329.8661 0001556  23.3970 336.7114 15.56788806202885
Epoch: 2026-05-04T18:29Z
TLE epoch observation values (Epoch: 2026-05-04T18:29:55.785Z)
Latitude
0.00003°
Longitude
-170.27152°
Altitude
396.905 km
Speed
7.674 km/s
True Right ascension
21h 59m 27s
True Declination
0° 00' 00"
Sunlit
Object was in daylight at epoch
Visualization orbit readout
Latitude
Unknown
Longitude
Unknown
Altitude
Unknown
Speed
Unknown
Apparent Right ascension
Unknown
Apparent Declination
Unknown
Sunlit
N/A
Visualization observer readout
Local Sidereal Time
23:15:16
Azimuth
Unknown
Elevation
Unknown
Doppler factor
Unknown
Orbital elements
Apogee altitude
398.263 km
Perigee altitude
396.155 km
Semi-major axis
6,775.346 km
Eccentricity
0.00016
Inclination
53.2101°
RAAN
329.8661°
Arg. of periapsis
23.397°
True anomaly
336.70435°
Mean anomaly
336.7114°
Eccentric anomaly
336.70787°
Mean motion
3.89176 °/min
Orbital period
92.5 mins
BSTAR
0.00063735
Loading maneuver chart data...
Computing Atmospheric mass density...
Loading historical data...
Loading historical data...
Loading historical data...
Loading historical data...
Loading historical data...
Loading historical data...
Loading historical data...

Documentation

Showing up to 5 results
|